BVX46V MMMX-MHTG

Flight info

Callsign BVX46V
Flight time 2h 7m
Altitude 35000
Route ILETO3A ILETO UT109 VER UA552 NAGEL DCT VITAN VITAN1A
Aircraft A320/M-SDE3FGHIRWY/LB1

Departure

Time 2026-05-08 13:01
Airport Mexico City Benito Juárez International Airport (MMMX)

Arrival

Time 2026-05-08 15:09
Airport Toncontín Airport (MHTG)
Time Latitude Longitude Altitude Speed Heading
2026-05-08 12:49 19.43370 -99.08387 7302 ft 0 kts 328°
2026-05-08 12:51 19.43360 -99.08381 7302 ft 4 kts 328°
2026-05-08 12:51 19.43318 -99.08354 7302 ft 4 kts 324°
2026-05-08 12:51 19.43300 -99.08336 7302 ft 4 kts 290°
2026-05-08 12:52 19.43302 -99.08315 7302 ft 4 kts 230°
2026-05-08 12:52 19.43341 -99.08315 7302 ft 4 kts 172°
2026-05-08 12:52 19.43348 -99.08317 7302 ft 0 kts 240°
2026-05-08 12:55 19.43318 -99.08364 7302 ft 13 kts 235°
2026-05-08 12:55 19.43263 -99.08438 7301 ft 13 kts 226°
2026-05-08 12:55 19.43198 -99.08506 7301 ft 13 kts 225°
2026-05-08 12:55 19.43147 -99.08584 7301 ft 13 kts 243°
2026-05-08 12:56 19.43102 -99.08667 7301 ft 14 kts 235°
2026-05-08 12:56 19.43042 -99.08760 7300 ft 17 kts 240°
2026-05-08 12:56 19.42990 -99.08881 7301 ft 19 kts 246°
2026-05-08 12:56 19.42921 -99.08985 7301 ft 17 kts 225°
2026-05-08 12:57 19.42829 -99.09061 7301 ft 17 kts 202°
2026-05-08 12:57 19.42720 -99.09061 7302 ft 14 kts 151°
2026-05-08 12:57 19.42688 -99.08971 7302 ft 14 kts 91°
2026-05-08 12:57 19.42699 -99.08879 7302 ft 11 kts 92°
2026-05-08 12:58 19.42687 -99.08795 7302 ft 10 kts 99°
2026-05-08 12:58 19.42680 -99.08745 7302 ft 0 kts 97°
2026-05-08 12:59 19.42679 -99.08736 7302 ft 4 kts 96°
2026-05-08 12:59 19.42677 -99.08707 7303 ft 0 kts 94°
2026-05-08 12:59 19.42677 -99.08703 7303 ft 3 kts 93°
2026-05-08 12:59 19.42677 -99.08642 7303 ft 13 kts 88°
2026-05-08 13:00 19.42692 -99.08601 7303 ft 0 kts 60°
2026-05-08 13:00 19.42791 -99.08420 7302 ft 65 kts 59°
2026-05-08 13:00 19.43135 -99.07810 7304 ft 126 kts 60°
2026-05-08 13:01 19.43672 -99.06852 7303 ft 175 kts 59°
2026-05-08 13:01 19.44341 -99.05672 7785 ft 186 kts 58°
2026-05-08 13:01 19.45003 -99.04560 8948 ft 170 kts 58°
2026-05-08 13:01 19.45624 -99.03542 9400 ft 165 kts 58°
2026-05-08 13:02 19.46279 -99.02460 9497 ft 185 kts 58°
2026-05-08 13:02 19.47002 -99.01255 9605 ft 203 kts 58°
2026-05-08 13:02 19.47797 -98.99922 9702 ft 225 kts 58°
2026-05-08 13:02 19.48679 -98.98444 9811 ft 249 kts 58°
2026-05-08 13:03 19.49641 -98.96821 9963 ft 272 kts 59°
2026-05-08 13:03 19.50664 -98.95034 10179 ft 293 kts 59°
2026-05-08 13:03 19.51722 -98.93149 10655 ft 301 kts 59°
2026-05-08 13:03 19.52792 -98.91224 11250 ft 304 kts 60°
2026-05-08 13:04 19.53618 -98.89155 11857 ft 307 kts 72°
2026-05-08 13:04 19.54231 -98.86984 12488 ft 309 kts 74°
2026-05-08 13:04 19.54803 -98.84776 13119 ft 311 kts 75°
2026-05-08 13:04 19.55362 -98.82550 13742 ft 314 kts 75°
2026-05-08 13:05 19.55919 -98.80334 14303 ft 316 kts 75°
2026-05-08 13:05 19.56494 -98.78073 14847 ft 319 kts 75°
2026-05-08 13:05 19.57053 -98.75784 15368 ft 322 kts 81°
2026-05-08 13:05 19.57202 -98.73411 15883 ft 324 kts 95°
2026-05-08 13:06 19.56807 -98.71030 16140 ft 336 kts 109°
2026-05-08 13:06 19.55867 -98.68698 16266 ft 352 kts 116°
2026-05-08 13:06 19.54792 -98.66299 16385 ft 368 kts 116°
2026-05-08 13:06 19.53675 -98.63794 16519 ft 383 kts 116°
2026-05-08 13:07 19.52521 -98.61190 16657 ft 396 kts 116°
2026-05-08 13:07 19.51348 -98.58523 17005 ft 402 kts 116°
2026-05-08 13:07 19.50165 -98.55823 17453 ft 405 kts 116°
2026-05-08 13:07 19.48978 -98.53110 17912 ft 407 kts 116°
2026-05-08 13:08 19.47781 -98.50384 18387 ft 409 kts 116°
2026-05-08 13:08 19.46576 -98.47645 18791 ft 411 kts 116°
2026-05-08 13:08 19.45362 -98.44894 19174 ft 414 kts 116°
2026-05-08 13:08 19.44139 -98.42125 19549 ft 416 kts 117°
2026-05-08 13:09 19.42910 -98.39341 19907 ft 419 kts 117°
2026-05-08 13:09 19.41671 -98.36539 20278 ft 421 kts 117°
2026-05-08 13:09 19.40423 -98.33723 20632 ft 424 kts 117°
2026-05-08 13:09 19.39172 -98.30893 20978 ft 426 kts 117°
2026-05-08 13:10 19.37909 -98.28038 21324 ft 429 kts 117°
2026-05-08 13:10 19.36642 -98.25174 21689 ft 431 kts 117°
2026-05-08 13:10 19.35363 -98.22282 22036 ft 434 kts 117°
2026-05-08 13:10 19.34081 -98.19384 22374 ft 436 kts 117°
2026-05-08 13:11 19.32790 -98.16470 22712 ft 438 kts 118°
2026-05-08 13:11 19.31491 -98.13543 23031 ft 440 kts 118°
2026-05-08 13:11 19.30186 -98.10602 23357 ft 443 kts 118°
2026-05-08 13:11 19.28875 -98.07645 23656 ft 445 kts 118°
2026-05-08 13:12 19.27573 -98.04665 23901 ft 447 kts 115°
2026-05-08 13:12 19.26611 -98.01520 24162 ft 453 kts 105°
2026-05-08 13:12 19.26153 -97.98254 24391 ft 458 kts 96°
2026-05-08 13:12 19.25953 -97.94838 24633 ft 460 kts 96°
2026-05-08 13:13 19.25751 -97.91457 24880 ft 461 kts 96°
2026-05-08 13:13 19.25540 -97.88059 25129 ft 463 kts 96°
2026-05-08 13:13 19.25326 -97.84652 25373 ft 465 kts 96°
2026-05-08 13:13 19.25112 -97.81227 25611 ft 467 kts 96°
2026-05-08 13:14 19.24898 -97.77791 25839 ft 469 kts 96°
2026-05-08 13:14 19.24682 -97.74339 26072 ft 471 kts 96°
2026-05-08 13:14 19.24464 -97.70870 26297 ft 473 kts 96°
2026-05-08 13:14 19.24246 -97.67394 26517 ft 475 kts 96°
2026-05-08 13:15 19.24026 -97.63900 26734 ft 477 kts 96°
2026-05-08 13:15 19.23804 -97.60398 26947 ft 478 kts 96°
2026-05-08 13:15 19.23583 -97.56926 27160 ft 479 kts 96°
2026-05-08 13:15 19.23360 -97.53405 27391 ft 481 kts 96°
2026-05-08 13:16 19.23140 -97.49870 27608 ft 482 kts 96°
2026-05-08 13:16 19.22916 -97.46320 27816 ft 484 kts 96°
2026-05-08 13:16 19.22691 -97.42762 28023 ft 486 kts 96°
2026-05-08 13:16 19.22461 -97.39196 28312 ft 485 kts 96°
2026-05-08 13:17 19.22230 -97.35638 28616 ft 485 kts 96°
2026-05-08 13:17 19.22000 -97.32083 28922 ft 484 kts 96°
2026-05-08 13:17 19.21770 -97.28531 29210 ft 484 kts 96°
2026-05-08 13:17 19.21540 -97.24981 29491 ft 484 kts 96°
2026-05-08 13:18 19.21310 -97.21433 29774 ft 483 kts 96°
2026-05-08 13:18 19.21075 -97.17889 30071 ft 483 kts 96°
2026-05-08 13:18 19.20914 -97.15495 30244 ft 483 kts 96°
2026-05-08 13:18 19.20599 -97.10807 30552 ft 482 kts 96°
2026-05-08 13:19 19.20442 -97.08413 30725 ft 482 kts 96°
2026-05-08 13:19 19.20213 -97.04875 30978 ft 482 kts 96°
2026-05-08 13:19 19.19985 -97.01386 31220 ft 482 kts 96°
2026-05-08 13:19 19.19751 -96.97847 31431 ft 482 kts 95°
2026-05-08 13:20 19.19518 -96.94311 31679 ft 482 kts 95°
2026-05-08 13:20 19.19283 -96.90775 31925 ft 482 kts 95°
2026-05-08 13:20 19.19045 -96.87235 32182 ft 482 kts 95°
2026-05-08 13:20 19.18804 -96.83702 32391 ft 482 kts 95°
2026-05-08 13:21 19.18559 -96.80167 32674 ft 481 kts 95°
2026-05-08 13:21 19.18317 -96.76638 32945 ft 481 kts 95°
2026-05-08 13:21 19.18081 -96.73110 33206 ft 481 kts 95°
2026-05-08 13:21 19.17848 -96.69584 33473 ft 481 kts 95°
2026-05-08 13:22 19.17615 -96.66058 33702 ft 481 kts 95°
2026-05-08 13:22 19.17374 -96.62532 33958 ft 480 kts 95°
2026-05-08 13:22 19.17129 -96.59007 34197 ft 480 kts 95°
2026-05-08 13:22 19.16888 -96.55489 34446 ft 480 kts 95°
2026-05-08 13:23 19.16648 -96.51975 34683 ft 479 kts 95°
2026-05-08 13:23 19.16402 -96.48462 34845 ft 479 kts 95°
2026-05-08 13:23 19.15905 -96.41418 34898 ft 481 kts 95°
2026-05-08 13:24 19.15407 -96.34361 34905 ft 481 kts 95°
2026-05-08 13:24 19.14915 -96.27301 34913 ft 481 kts 95°
2026-05-08 13:25 19.13969 -96.20319 34917 ft 479 kts 108°
2026-05-08 13:25 19.11164 -96.13988 34916 ft 475 kts 126°
2026-05-08 13:26 19.07452 -96.08204 34912 ft 475 kts 126°
2026-05-08 13:26 19.03753 -96.02413 34914 ft 475 kts 126°
2026-05-08 13:27 19.00058 -95.96627 34904 ft 475 kts 125°
2026-05-08 13:27 18.96353 -95.90855 34898 ft 475 kts 126°
2026-05-08 13:28 18.92643 -95.85083 34898 ft 475 kts 126°
2026-05-08 13:28 18.88927 -95.79315 34896 ft 475 kts 126°
2026-05-08 13:29 18.85214 -95.73550 34897 ft 475 kts 126°
2026-05-08 13:29 18.81501 -95.67790 34903 ft 474 kts 125°
2026-05-08 13:30 18.77793 -95.62031 34908 ft 474 kts 125°
2026-05-08 13:30 18.74092 -95.56289 34908 ft 473 kts 125°
2026-05-08 13:31 18.70389 -95.50553 34906 ft 473 kts 125°
2026-05-08 13:31 18.66682 -95.44819 34903 ft 473 kts 125°
2026-05-08 13:32 18.62972 -95.39091 34899 ft 473 kts 125°
2026-05-08 13:32 18.59256 -95.33363 34905 ft 473 kts 125°
2026-05-08 13:33 18.55545 -95.27634 34909 ft 473 kts 125°
2026-05-08 13:33 18.51838 -95.21908 34909 ft 473 kts 125°
2026-05-08 13:34 18.48131 -95.16187 34921 ft 473 kts 125°
2026-05-08 13:34 18.44411 -95.10474 34917 ft 473 kts 126°
2026-05-08 13:35 18.40692 -95.04769 34918 ft 473 kts 126°
2026-05-08 13:35 18.36973 -94.99055 34919 ft 473 kts 125°
2026-05-08 13:36 18.33255 -94.93345 34915 ft 473 kts 126°
2026-05-08 13:36 18.29531 -94.87643 34912 ft 473 kts 126°
2026-05-08 13:37 18.25807 -94.81944 34913 ft 472 kts 126°
2026-05-08 13:37 18.22082 -94.76247 34915 ft 472 kts 126°
2026-05-08 13:38 18.18359 -94.70553 34903 ft 472 kts 126°
2026-05-08 13:38 18.14659 -94.64898 34925 ft 472 kts 126°
2026-05-08 13:39 18.10912 -94.59230 34918 ft 472 kts 129°
2026-05-08 13:39 18.06404 -94.54265 34912 ft 469 kts 137°
2026-05-08 13:40 18.01736 -94.49471 34921 ft 469 kts 137°
2026-05-08 13:40 17.97065 -94.44680 34914 ft 469 kts 137°
2026-05-08 13:41 17.92386 -94.39901 34905 ft 469 kts 137°
2026-05-08 13:41 17.87705 -94.35120 34913 ft 469 kts 137°
2026-05-08 13:42 17.83032 -94.30334 34909 ft 469 kts 137°
2026-05-08 13:42 17.78356 -94.25554 34912 ft 469 kts 137°
2026-05-08 13:43 17.73672 -94.20784 34903 ft 469 kts 137°
2026-05-08 13:43 17.68987 -94.16016 34912 ft 469 kts 137°
2026-05-08 13:44 17.64308 -94.11249 34917 ft 469 kts 137°
2026-05-08 13:44 17.59634 -94.06482 34917 ft 469 kts 137°
2026-05-08 13:45 17.54957 -94.01722 34923 ft 468 kts 137°
2026-05-08 13:45 17.50277 -93.96972 34923 ft 468 kts 137°
2026-05-08 13:46 17.45597 -93.92228 34923 ft 468 kts 137°
2026-05-08 13:46 17.40912 -93.87481 34928 ft 468 kts 137°
2026-05-08 13:47 17.36229 -93.82743 34929 ft 468 kts 137°
2026-05-08 13:47 17.31584 -93.78028 34932 ft 468 kts 136°
2026-05-08 13:48 17.26914 -93.73290 34949 ft 467 kts 136°
2026-05-08 13:48 17.22240 -93.68566 34949 ft 467 kts 137°
2026-05-08 13:49 17.17564 -93.63844 34948 ft 467 kts 136°
2026-05-08 13:49 17.12898 -93.59123 34965 ft 467 kts 136°
2026-05-08 13:50 17.08229 -93.54409 34963 ft 467 kts 137°
2026-05-08 13:50 17.03560 -93.49695 34962 ft 467 kts 136°
2026-05-08 13:51 16.98886 -93.44985 34969 ft 466 kts 136°
2026-05-08 13:51 16.94217 -93.40284 34972 ft 466 kts 136°
2026-05-08 13:52 16.89552 -93.35585 34982 ft 466 kts 136°
2026-05-08 13:52 16.84884 -93.30896 34980 ft 466 kts 136°
2026-05-08 13:53 16.80220 -93.26206 34992 ft 465 kts 137°
2026-05-08 13:53 16.75552 -93.21528 35004 ft 465 kts 136°
2026-05-08 13:54 16.70884 -93.16850 35014 ft 465 kts 136°
2026-05-08 13:54 16.66217 -93.12179 35026 ft 465 kts 136°
2026-05-08 13:55 16.61547 -93.07505 35035 ft 465 kts 136°
2026-05-08 13:56 16.54848 -93.00222 35033 ft 464 kts 129°
2026-05-08 13:56 16.50751 -92.95017 35033 ft 464 kts 129°
2026-05-08 13:57 16.46658 -92.89812 35018 ft 464 kts 129°
2026-05-08 13:57 16.42564 -92.84612 35006 ft 464 kts 129°
2026-05-08 13:58 16.38458 -92.79418 34977 ft 464 kts 129°
2026-05-08 13:58 16.34353 -92.74227 34988 ft 464 kts 129°
2026-05-08 13:59 16.30251 -92.69038 34981 ft 464 kts 129°
2026-05-08 13:59 16.26161 -92.63853 34978 ft 463 kts 129°
2026-05-08 14:00 16.22063 -92.58673 34992 ft 463 kts 129°
2026-05-08 14:00 16.17966 -92.53499 34986 ft 463 kts 129°
2026-05-08 14:01 16.13867 -92.48325 34985 ft 463 kts 129°
2026-05-08 14:01 16.09760 -92.43157 35008 ft 463 kts 129°
2026-05-08 14:02 16.05657 -92.37995 35004 ft 463 kts 129°
2026-05-08 14:02 16.02250 -92.33702 35002 ft 463 kts 129°
2026-05-08 14:03 15.97486 -92.27702 35013 ft 463 kts 129°
2026-05-08 14:03 15.93389 -92.22545 35017 ft 462 kts 129°
2026-05-08 14:04 15.89292 -92.17401 35032 ft 462 kts 129°
2026-05-08 14:04 15.85883 -92.13133 35040 ft 462 kts 129°
2026-05-08 14:05 15.81789 -92.07994 35038 ft 461 kts 129°
2026-05-08 14:05 15.77700 -92.02860 35036 ft 461 kts 129°
2026-05-08 14:06 15.73610 -91.97730 35064 ft 461 kts 129°
2026-05-08 14:06 15.69515 -91.92603 35066 ft 461 kts 129°
2026-05-08 14:07 15.65417 -91.87481 35063 ft 461 kts 129°
2026-05-08 14:07 15.61328 -91.82363 35115 ft 461 kts 128°
2026-05-08 14:08 15.57237 -91.77251 35112 ft 460 kts 129°
2026-05-08 14:08 15.53149 -91.72137 35112 ft 460 kts 129°
2026-05-08 14:09 15.49057 -91.67032 35150 ft 460 kts 129°
2026-05-08 14:09 15.44969 -91.61932 35149 ft 460 kts 129°
2026-05-08 14:10 15.40879 -91.56829 35145 ft 460 kts 129°
2026-05-08 14:10 15.36788 -91.51736 35147 ft 460 kts 129°
2026-05-08 14:11 15.32690 -91.46644 35156 ft 460 kts 129°
2026-05-08 14:11 15.28592 -91.41554 35156 ft 460 kts 129°
2026-05-08 14:12 15.24491 -91.36461 35153 ft 460 kts 129°
2026-05-08 14:12 15.20393 -91.31368 35160 ft 460 kts 128°
2026-05-08 14:13 15.16297 -91.26280 35160 ft 460 kts 129°
2026-05-08 14:13 15.12200 -91.21200 35157 ft 460 kts 129°
2026-05-08 14:14 15.08100 -91.16122 35153 ft 460 kts 129°
2026-05-08 14:14 15.04020 -91.11064 35161 ft 461 kts 129°
2026-05-08 14:15 14.99910 -91.05982 35156 ft 461 kts 129°
2026-05-08 14:15 14.95792 -91.00896 35147 ft 461 kts 129°
2026-05-08 14:16 14.91677 -90.95814 35170 ft 461 kts 129°
2026-05-08 14:16 14.87563 -90.90735 35172 ft 461 kts 128°
2026-05-08 14:17 14.83455 -90.85649 35174 ft 461 kts 128°
2026-05-08 14:17 14.79340 -90.80575 35176 ft 461 kts 129°
2026-05-08 14:18 14.75218 -90.75502 35178 ft 461 kts 129°
2026-05-08 14:18 14.71100 -90.70427 35183 ft 461 kts 129°
2026-05-08 14:19 14.66976 -90.65353 35191 ft 461 kts 129°
2026-05-08 14:19 14.62851 -90.60281 35199 ft 461 kts 129°
2026-05-08 14:20 14.58909 -90.55079 35198 ft 459 kts 120°
2026-05-08 14:20 14.56521 -90.49016 35193 ft 457 kts 101°
2026-05-08 14:21 14.55480 -90.42556 35182 ft 456 kts 98°
2026-05-08 14:21 14.54463 -90.36089 35167 ft 457 kts 98°
2026-05-08 14:22 14.53437 -90.29610 35159 ft 458 kts 99°
2026-05-08 14:22 14.52402 -90.23122 35150 ft 458 kts 99°
2026-05-08 14:23 14.51368 -90.16629 35140 ft 458 kts 99°
2026-05-08 14:23 14.50336 -90.10135 35130 ft 459 kts 98°
2026-05-08 14:24 14.49313 -90.03638 35133 ft 459 kts 98°
2026-05-08 14:24 14.48280 -89.97142 35114 ft 459 kts 99°
2026-05-08 14:25 14.47238 -89.90641 35114 ft 459 kts 99°
2026-05-08 14:25 14.46200 -89.84137 35116 ft 460 kts 99°
2026-05-08 14:26 14.45158 -89.77628 35120 ft 460 kts 99°
2026-05-08 14:26 14.44114 -89.71115 35123 ft 460 kts 99°
2026-05-08 14:27 14.43068 -89.64598 35112 ft 461 kts 99°
2026-05-08 14:27 14.42029 -89.58125 35114 ft 461 kts 99°
2026-05-08 14:28 14.40980 -89.51606 35107 ft 461 kts 99°
2026-05-08 14:28 14.39928 -89.45089 35107 ft 460 kts 99°
2026-05-08 14:29 14.38878 -89.38576 35106 ft 460 kts 99°
2026-05-08 14:29 14.37823 -89.32068 35105 ft 460 kts 99°
2026-05-08 14:30 14.36763 -89.25562 35100 ft 460 kts 99°
2026-05-08 14:30 14.35710 -89.19066 34792 ft 458 kts 99°
2026-05-08 14:30 14.35185 -89.15825 34563 ft 458 kts 99°
2026-05-08 14:31 14.34658 -89.12579 34331 ft 459 kts 99°
2026-05-08 14:31 14.34133 -89.09337 34040 ft 458 kts 99°
2026-05-08 14:31 14.33607 -89.06102 33761 ft 459 kts 99°
2026-05-08 14:32 14.32533 -88.99590 33256 ft 461 kts 99°
2026-05-08 14:32 14.31995 -88.96332 33006 ft 461 kts 99°
2026-05-08 14:32 14.31461 -88.93078 32563 ft 460 kts 99°
2026-05-08 14:32 14.30927 -88.89820 31752 ft 461 kts 100°
2026-05-08 14:33 14.30393 -88.86553 30926 ft 463 kts 100°
2026-05-08 14:33 14.29853 -88.83277 30103 ft 464 kts 99°
2026-05-08 14:33 14.29312 -88.79998 29127 ft 464 kts 99°
2026-05-08 14:33 14.28771 -88.76712 28142 ft 465 kts 99°
2026-05-08 14:34 14.28229 -88.73421 27154 ft 466 kts 100°
2026-05-08 14:34 14.27685 -88.70124 26191 ft 466 kts 100°
2026-05-08 14:34 14.27140 -88.66836 25451 ft 462 kts 100°
2026-05-08 14:34 14.26601 -88.63595 24796 ft 455 kts 101°
2026-05-08 14:35 14.25820 -88.60463 24130 ft 449 kts 109°
2026-05-08 14:35 14.24632 -88.57513 23439 ft 443 kts 115°
2026-05-08 14:35 14.23311 -88.54660 22655 ft 439 kts 115°
2026-05-08 14:35 14.22005 -88.51829 21874 ft 436 kts 115°
2026-05-08 14:36 14.20729 -88.49056 21124 ft 433 kts 115°
2026-05-08 14:36 14.19442 -88.46261 20447 ft 430 kts 115°
2026-05-08 14:36 14.18165 -88.43477 19767 ft 428 kts 115°
2026-05-08 14:36 14.16898 -88.40714 19105 ft 426 kts 115°
2026-05-08 14:37 14.15633 -88.37962 18453 ft 424 kts 115°
2026-05-08 14:37 14.14372 -88.35225 17752 ft 422 kts 115°
2026-05-08 14:37 14.13117 -88.32505 17096 ft 418 kts 115°
2026-05-08 14:37 14.11874 -88.29814 16481 ft 414 kts 115°
2026-05-08 14:38 14.10644 -88.27149 15881 ft 410 kts 115°
2026-05-08 14:38 14.09425 -88.24503 15292 ft 407 kts 115°
2026-05-08 14:38 14.08218 -88.21885 14747 ft 403 kts 115°
2026-05-08 14:38 14.07021 -88.19290 14170 ft 399 kts 115°
2026-05-08 14:39 14.05831 -88.16721 13548 ft 396 kts 115°
2026-05-08 14:39 14.04651 -88.14169 12938 ft 393 kts 115°
2026-05-08 14:39 14.03485 -88.11648 12369 ft 388 kts 115°
2026-05-08 14:39 14.02329 -88.09151 11874 ft 384 kts 115°
2026-05-08 14:40 14.01198 -88.06708 11626 ft 371 kts 115°
2026-05-08 14:40 14.00109 -88.04353 11390 ft 358 kts 114°
2026-05-08 14:40 13.99058 -88.02078 11154 ft 346 kts 115°
2026-05-08 14:40 13.98037 -87.99873 10915 ft 335 kts 115°
2026-05-08 14:41 13.97044 -87.97735 10687 ft 327 kts 114°
2026-05-08 14:41 13.96079 -87.95652 10455 ft 318 kts 114°
2026-05-08 14:41 13.95136 -87.93618 10225 ft 311 kts 115°
2026-05-08 14:41 13.94215 -87.91638 10011 ft 303 kts 115°
2026-05-08 14:42 13.93332 -87.89739 9892 ft 292 kts 115°
2026-05-08 14:42 13.92479 -87.87902 9897 ft 276 kts 115°
2026-05-08 14:42 13.91673 -87.86165 9874 ft 262 kts 115°
2026-05-08 14:42 13.90907 -87.84513 9873 ft 249 kts 115°
2026-05-08 14:43 13.90169 -87.82925 9877 ft 244 kts 115°
2026-05-08 14:43 13.89439 -87.81355 9878 ft 243 kts 115°
2026-05-08 14:43 13.88713 -87.79789 9879 ft 242 kts 115°
2026-05-08 14:43 13.87989 -87.78225 9877 ft 241 kts 114°
2026-05-08 14:44 13.87310 -87.76650 9879 ft 241 kts 108°
2026-05-08 14:44 13.86959 -87.74973 9879 ft 240 kts 95°
2026-05-08 14:44 13.87002 -87.73255 9841 ft 242 kts 82°
2026-05-08 14:44 13.87429 -87.71581 9787 ft 243 kts 73°
2026-05-08 14:45 13.87963 -87.69932 9752 ft 243 kts 74°
2026-05-08 14:45 13.88492 -87.68284 9696 ft 243 kts 74°
2026-05-08 14:45 13.89021 -87.66632 9640 ft 244 kts 73°
2026-05-08 14:45 13.89551 -87.64976 9586 ft 243 kts 74°
2026-05-08 14:46 13.90077 -87.63330 9523 ft 243 kts 73°
2026-05-08 14:46 13.90602 -87.61685 9465 ft 242 kts 74°
2026-05-08 14:46 13.91124 -87.60038 9414 ft 241 kts 74°
2026-05-08 14:46 13.91640 -87.58400 9358 ft 240 kts 73°
2026-05-08 14:47 13.92156 -87.56766 9313 ft 241 kts 73°
2026-05-08 14:47 13.92677 -87.55123 9296 ft 240 kts 73°
2026-05-08 14:47 13.93195 -87.53492 9246 ft 239 kts 73°
2026-05-08 14:47 13.93714 -87.51861 9199 ft 240 kts 73°
2026-05-08 14:48 13.94235 -87.50222 9152 ft 241 kts 73°
2026-05-08 14:48 13.94754 -87.48587 9100 ft 239 kts 73°
2026-05-08 14:48 13.95270 -87.46957 9052 ft 240 kts 72°
2026-05-08 14:48 13.95789 -87.45321 8994 ft 240 kts 73°
2026-05-08 14:49 13.96306 -87.43692 8952 ft 238 kts 72°
2026-05-08 14:49 13.96820 -87.42077 8971 ft 238 kts 72°
2026-05-08 14:49 13.97339 -87.40448 8982 ft 240 kts 72°
2026-05-08 14:49 13.97856 -87.38819 8999 ft 239 kts 73°
2026-05-08 14:50 13.98369 -87.37193 9002 ft 239 kts 72°
2026-05-08 14:50 13.98886 -87.35559 9003 ft 241 kts 73°
2026-05-08 14:50 13.99399 -87.33935 9005 ft 233 kts 73°
2026-05-08 14:50 13.99888 -87.32396 8998 ft 220 kts 73°
2026-05-08 14:51 14.00321 -87.30906 9005 ft 216 kts 81°
2026-05-08 14:51 14.00346 -87.29368 9005 ft 216 kts 99°
2026-05-08 14:51 13.99872 -87.27903 9010 ft 217 kts 118°
2026-05-08 14:51 13.98986 -87.26721 9025 ft 201 kts 135°
2026-05-08 14:52 13.98265 -87.26150 8960 ft 195 kts 146°
2026-05-08 14:52 13.95774 -87.25464 8738 ft 182 kts 179°
2026-05-08 14:52 13.94547 -87.25682 8602 ft 176 kts 195°
2026-05-08 14:53 13.93395 -87.26073 8373 ft 174 kts 194°
2026-05-08 14:53 13.92272 -87.26529 8255 ft 175 kts 210°
2026-05-08 14:53 13.91381 -87.27385 8128 ft 177 kts 236°
2026-05-08 14:53 13.90797 -87.28499 8036 ft 178 kts 242°
2026-05-08 14:54 13.90225 -87.29628 7920 ft 177 kts 242°
2026-05-08 14:54 13.89665 -87.30726 8054 ft 172 kts 242°
2026-05-08 14:54 13.89108 -87.31814 8003 ft 171 kts 241°
2026-05-08 14:54 13.88384 -87.32768 7989 ft 170 kts 214°
2026-05-08 14:55 13.87328 -87.33250 7974 ft 165 kts 184°
2026-05-08 14:55 13.86207 -87.33181 7986 ft 160 kts 158°
2026-05-08 14:55 13.85268 -87.32628 7981 ft 154 kts 133°
2026-05-08 14:55 13.84663 -87.31744 7981 ft 151 kts 109°
2026-05-08 14:56 13.84477 -87.30693 7985 ft 150 kts 86°
2026-05-08 14:56 13.84737 -87.29660 7979 ft 151 kts 63°
2026-05-08 14:56 13.85405 -87.28827 7988 ft 153 kts 39°
2026-05-08 14:56 13.86361 -87.28355 7984 ft 154 kts 19°
2026-05-08 14:57 13.87392 -87.28031 7983 ft 154 kts 21°
2026-05-08 14:57 13.88402 -87.27706 7728 ft 152 kts 20°
2026-05-08 14:57 13.89412 -87.27380 7402 ft 150 kts 19°
2026-05-08 14:57 13.90404 -87.27057 7410 ft 151 kts 20°
2026-05-08 14:58 13.91407 -87.26731 7400 ft 151 kts 20°
2026-05-08 14:58 13.92428 -87.26397 7070 ft 155 kts 20°
2026-05-08 14:58 13.93431 -87.26064 6775 ft 149 kts 19°
2026-05-08 14:58 13.94413 -87.25735 6430 ft 147 kts 20°
2026-05-08 14:59 13.95381 -87.25411 6023 ft 146 kts 20°
2026-05-08 14:59 13.97324 -87.24761 5806 ft 149 kts 21°
2026-05-08 14:59 13.98295 -87.24439 5524 ft 146 kts 19°
2026-05-08 15:00 13.99265 -87.24116 5204 ft 146 kts 19°
2026-05-08 15:00 14.00229 -87.23797 4845 ft 147 kts 20°
2026-05-08 15:00 14.01204 -87.23473 4598 ft 147 kts 19°
2026-05-08 15:00 14.02174 -87.23151 4623 ft 144 kts 19°
2026-05-08 15:01 14.03139 -87.22851 4379 ft 144 kts 14°
2026-05-08 15:01 14.04092 -87.22464 3927 ft 152 kts 27°
2026-05-08 15:01 14.05101 -87.22083 3437 ft 157 kts 14°
2026-05-08 15:01 14.06067 -87.21698 3273 ft 137 kts
2026-05-08 15:02 14.06978 -87.21395 3451 ft 149 kts 11°
2026-05-08 15:02 14.08077 -87.21091 3935 ft 178 kts
2026-05-08 15:02 14.09324 -87.20886 4219 ft 187 kts
2026-05-08 15:02 14.10691 -87.20773 4383 ft 209 kts 356°
2026-05-08 15:03 14.12040 -87.21367 4667 ft 219 kts 319°
2026-05-08 15:03 14.12849 -87.22701 5062 ft 225 kts 286°
2026-05-08 15:03 14.13031 -87.24306 5421 ft 229 kts 272°
2026-05-08 15:03 14.12926 -87.25946 5810 ft 231 kts 257°
2026-05-08 15:04 14.12155 -87.27405 5966 ft 235 kts 225°
2026-05-08 15:04 14.10765 -87.28233 5986 ft 234 kts 194°
2026-05-08 15:04 14.09190 -87.28592 6036 ft 226 kts 186°
2026-05-08 15:04 14.07684 -87.28880 6419 ft 217 kts 185°
2026-05-08 15:05 14.06226 -87.29099 6876 ft 203 kts 180°
2026-05-08 15:05 14.04909 -87.28878 7272 ft 187 kts 153°
2026-05-08 15:05 14.03694 -87.28377 7458 ft 191 kts 153°
2026-05-08 15:05 14.02428 -87.27926 7631 ft 194 kts 156°
2026-05-08 15:06 14.01131 -87.27539 7817 ft 195 kts 159°
2026-05-08 15:06 13.99865 -87.27239 7910 ft 174 kts 162°
2026-05-08 15:06 13.98776 -87.26861 7807 ft 161 kts 142°
2026-05-08 15:06 13.98088 -87.26017 7416 ft 155 kts 102°
2026-05-08 15:07 13.98200 -87.24979 7023 ft 150 kts 50°
2026-05-08 15:07 13.99104 -87.24461 6476 ft 159 kts 13°
2026-05-08 15:07 14.00272 -87.24169 5580 ft 182 kts 16°
2026-05-08 15:07 14.01453 -87.23675 4873 ft 185 kts 26°
2026-05-08 15:08 14.02611 -87.23094 4286 ft 182 kts 26°
2026-05-08 15:08 14.03349 -87.22731 4060 ft 173 kts 22°
2026-05-08 15:08 14.04832 -87.22171 3484 ft 164 kts 17°
2026-05-08 15:08 14.05859 -87.21811 3294 ft 144 kts 13°
2026-05-08 15:09 14.06495 -87.21586 3264 ft 32 kts 25°
2026-05-08 15:09 14.06561 -87.21566 3263 ft 11 kts 352°
2026-05-08 15:09 14.06565 -87.21632 3264 ft 12 kts 207°
2026-05-08 15:09 14.06494 -87.21659 3264 ft 10 kts 200°
2026-05-08 15:10 14.06441 -87.21679 3264 ft 6 kts 198°
2026-05-08 15:10 14.06405 -87.21690 3266 ft 8 kts 198°
2026-05-08 15:10 14.06313 -87.21728 3270 ft 19 kts 201°
2026-05-08 15:10 14.06194 -87.21766 3265 ft 14 kts 197°
2026-05-08 15:11 14.06129 -87.21787 3266 ft 2 kts 198°
2026-05-08 15:11 14.06113 -87.21793 3267 ft 6 kts 199°
2026-05-08 15:11 14.06072 -87.21821 3270 ft 8 kts 208°
2026-05-08 15:11 14.06057 -87.21862 3272 ft 1 kts 279°
2026-05-08 15:12 14.06060 -87.21876 3273 ft 2 kts 284°